Hourly Weather Roundup
Issued by NWS Central Illinois

Home | Current Version | Previous Version | Text Only | Print | Product List | Glossary On
Versions: 1 2 3 4 5 6 7 8 9 10 11 12 13 14 15 16 17 18 19 20 21 22 23 24 25 26 27 28 29 30 31 32 33 34 35 36 37 38 39 40 41 42 43 44 45 46 47 48 49 50
000
NZUS43 KILX 040810
HWRILX

AREA WEATHER ROUNDUP
NATIONAL WEATHER SERVICE, LINCOLN IL
300 AM CDT TUE AUG 04 2015


CITY           SKY/WX    TMP DP  RH WIND       PRES   REMARKS
BLOOMINGTON    CLEAR     63  59  87 CALM      29.96S
CHAMPAIGN      CLEAR     60  57  89 CALM      29.95R
DANVILLE       CLEAR     56  56  98 CALM      29.92S
DECATUR        CLEAR     63  60  90 CALM      29.95R
EFFINGHAM      MOCLDY    71  61  70 CALM      29.96S
FLORA          PTCLDY    70  66  88 N3        29.95R
GALESBURG      CLEAR     56  56  97 CALM      29.95F
JACKSONVILLE   PTCLDY    66  63  89 CALM      29.95S
LACON          CLEAR     60  57  91 CALM      29.94S
LAWRENCEVILLE  MOCLDY    73  66  78 NE3       29.94S
LITCHFIELD     PTCLDY    72  60  65 E3        29.95S
$$


CITY           SKY/WX    TMP DP  RH WIND       PRES   REMARKS
LINCOLN        PTCLDY    62  59  90 N5        29.94F
MACOMB         MOCLDY    59  58  97 CALM      29.98S
MATTOON        CLEAR     65  59  81 CALM      29.94S
MT CARMEL AP   MOCLDY    72  68  88 CALM      29.94S
OLNEY-NOBLE AP PTCLDY    70  64  83 NE3       29.95R
PARIS          CLEAR     59  58  98 CALM      29.95S
PEORIA         CLEAR     65  58  78 N3        29.95S
PONTIAC        CLEAR     59  58  96 CALM      29.95S
RANTOUL        CLEAR     63  58  86 CALM      29.94S
ROBINSON       CLOUDY    69  66  91 CALM      29.95R
SPRINGFIELD    CLEAR     65  61  87 CALM      29.95S
TAYLORVILLE    PTCLDY    63  63 100 CALM      29.95S
$$

...REGIONAL REPORTS...


CITY           SKY/WX    TMP DP  RH WIND       PRES   REMARKS
CHICAGO O`HARE CLEAR     63  55  75 W3        29.91S
KANKAKEE       CLEAR     61  57  87 CALM      29.93F
MOLINE         CLEAR     61  56  83 CALM      29.94F
MOUNT STERLING NOT AVBL
MOUNT VERNON   PTCLDY    70  64  83 CALM      29.95S
PITTSFIELD     CLOUDY    71  66  84 CALM      29.97R
QUINCY         MOCLDY    66  61  84 NE7       29.95F
ROCKFORD       CLEAR     59  54  83 S3        29.94S
$$


CITY           SKY/WX    TMP DP  RH WIND       PRES   REMARKS
BURLINGTON     CLEAR     61  59  93 CALM      29.95F
CEDAR RAPIDS   CLEAR     60  58  92 NW3       29.95S
DES MOINES     PTCLDY    69  59  70 CALM      29.94F
KIRKSVILLE     MOCLDY    67  62  84 NE6       29.97F
OTTUMWA        CLOUDY    63  61  93 CALM      29.94F
ST LOUIS       CLOUDY    79  65  62 NE5       29.95S HX  81
$$


CITY           SKY/WX    TMP DP  RH WIND       PRES   REMARKS
TERRE HAUTE    CLEAR     63  59  87 CALM      29.94S
EVANSVILLE     PTCLDY    74  68  81 CALM      29.94R
INDIANAPOLIS   CLEAR     65  58  78 W5        29.93S
LAFAYETTE      CLEAR     58  56  93 CALM      29.94R
MADISON        CLEAR     60  52  74 CALM      29.91S
MILWAUKEE      CLEAR     66  52  60 W5        29.90S
$$





USA.gov is the U.S. government's official web portal to all federal, state and local government web resources and services.